Regional Weather Roundup
Issued by NWS Little Rock, AR

Home | Current Version | Previous Version | Graphics & Text | Print | Product List | Glossary On
Versions: 1 2 3 4 5 6 7 8 9 10 11 12 13 14 15 16 17 18 19 20 21 22 23 24 25 26 27 28 29 30 31 32 33 34 35 36 37 38 39 40 41 42 43 44 45 46 47 48 49 50
000
ASUS44 KLZK 261905
RWRLZK

WEATHER ROUNDUP FOR ARKANSAS
NATIONAL WEATHER SERVICE LITTLE ROCK AR
200 PM CDT FRI MAY 26 2017

NOTE: "FAIR" INDICATES FEW OR NO CLOUDS BELOW 12,000 FEET WITH NO
SIGNIFICANT WEATHER AND/OR OBSTRUCTIONS TO VISIBILITY.

ARZ001-003-010-029-262000-
NORTHWEST ARKANSAS

CITY           SKY/WX    TMP DP  RH WIND       PRES   REMARKS
FAYETTEVILLE   CLOUDY    80  70  71 SW9       29.78S
FORT SMITH     MOSUNNY   86  68  54 S13       29.75F HX  89
HARRISON       PTSUNNY   81  67  62 SW8       29.79S
BENTONVILLE    CLOUDY    81  66  61 SW9       29.79S
ROGERS         CLOUDY    81  68  64 SW15G22   29.79S
SILOAM SPGS    PTSUNNY   81  66  61 S13       29.77S
HIGHFILL       CLOUDY    81  68  64 S12       29.78S
$$

ARZ004-005-016-262000-
NORTH CENTRAL ARKANSAS

CITY           SKY/WX    TMP DP  RH WIND       PRES   REMARKS
BATESVILLE     CLOUDY    73  66  78 SW8       29.84R
FLIPPIN        CLOUDY    79  64  61 S6        29.77S
MTN HOME       PTSUNNY   78  66  66 SW14      29.79S
$$

ARZ040-041-262000-
WEST CENTRAL ARKANSAS

CITY           SKY/WX    TMP DP  RH WIND       PRES   REMARKS
MENA           CLOUDY    81  77  89 CALM      29.83S HX  88
MOUNT IDA      CLOUDY    80  69  69 VRB3      29.81F
$$

ARZ009-017-025-026-028-262000-
NORTHEAST ARKANSAS

CITY           SKY/WX    TMP DP  RH WIND       PRES   REMARKS
JONESBORO      CLOUDY    78  65  63 SW21G31   29.82F
NEWPORT        CLOUDY    78  67  68 SW28      29.81F
WALNUT RIDGE   CLOUDY    77  64  65 SW22G28   29.81S
BLYTHEVILLE    CLOUDY    82  64  54 SW24G36   29.83F
NW BLYTHEVILLE CLOUDY    81  64  57 SW25G39   29.82F
$$

ARZ022-023-033-042-044-262000-
CENTRAL ARKANSAS

CITY           SKY/WX    TMP DP  RH WIND       PRES   REMARKS
LITTLE ROCK    CLOUDY    77  70  79 S12G20    29.85F
N LITTLE ROCK    N/A     77  69  77 S10G23    29.84F
JACKSONVILLE   PTSUNNY   79  70  73 S14       29.84F
CONWAY           N/A     79  70  73 S17       29.81F
SEARCY         CLOUDY    76  70  82 S15       29.85F
HOT SPRINGS    CLOUDY    78  71  79 SE6       29.84F
RUSSELLVILLE   CLOUDY    79  69  71 S9        29.80F
CLINTON        CLOUDY    72  68  88 CALM      29.83S
$$

ARZ036-262000-
EAST ARKANSAS

CITY           SKY/WX    TMP DP  RH WIND       PRES   REMARKS
WEST MEMPHIS   CLOUDY    82  66  58 S21G28    29.86F
$$

ARZ050-053-066-070-073-262000-
SOUTHWEST ARKANSAS

CITY           SKY/WX    TMP DP  RH WIND       PRES   REMARKS
ARKADELPHIA      N/A     83  72  69 S15       29.83F HX  88
CAMDEN         PTSUNNY   82  68  61 S12G21    29.85F HX  85
TEXARKANA      MOSUNNY   85  72  65 SW18G25   29.82F HX  91
EL DORADO      CLOUDY    81  70  69 S18G28    29.87F
DE QUEEN       CLOUDY    85  73  67 S9        29.78S HX  91
$$

ARZ056-057-069-262000-
SOUTHEAST ARKANSAS

CITY           SKY/WX    TMP DP  RH WIND       PRES   REMARKS
PINE BLUFF     CLOUDY    79  69  71 S14       29.87F
STUTTGART      CLOUDY   N/A N/A N/A S21       29.87F
MONTICELLO     CLOUDY    82  68  62 S16G25    29.89F HX  85

$$





USA.gov is the U.S. government's official web portal to all federal, state and local government web resources and services.